Home > Weather > Bismarck > Past weeks

Flag for U.S.A. Weather for the Past 2 Weeks in Bismarck, North Dakota, U.S.A.

Now
14 °F

Sunny.


Feels Like: 5 °F
Forecast: 5 / 11 °F
Wind: 6 mph from Northeast

Location: Bismarck Municipal Airport

Current Time: Feb 12, 2016 at 3:51:32 PM

Latest Report: Feb 12, 2016 at 2:52 PM


Visibility: 10 mi

Pressure: 30.68 "Hg (28.71 "Hg at 513m altitude)

Humidity: 53%

Dew point: 0 °F

Location of BismarckLocation

Historic Weather in Bismarck — Graph

°F

Bismarck Temperature Yesterday

Maximum temperature yesterday: 27 °F (at 3:01 PM)
Minimum temperature yesterday: 17 °F (at 12:52 AM)
Average temperature yesterday: 21 °F

High & Low Weather Summary for the Past Weeks

 TemperatureHumidityPressure
High53 °F (Feb 6, 3:52 PM)89% (Jan 31, 12:52 AM)30.72 "Hg (Jan 31, 12:52 AM)
Low5 °F (Feb 12, 7:52 AM)30% (Feb 4, 3:52 PM)29.49 "Hg (Jan 30, 2:52 AM)
Average31 °F66%30.03 "Hg
* Reported Jan 28 1:52 PM — Feb 12 1:52 PM, Bismarck, Weather by CustomWeather, © 2016

Note: Actual official high and low records may vary slightly from our data, if they occured in-between our weather recording intervals... More about our weather records

Advertising

Bismarck Weather History for the Previous 24 Hours

 ConditionsComfort  
Time TempWeatherWind HumidityBarometerVisibility
1:52 PM
Fri, Feb 12
13 °FSunny.5 mph54%30.69 "Hg10 mi
12:52 PM13 °FScattered clouds.5 mph59%30.71 "Hg10 mi
11:52 AM10 °FSunny.8 mph61%30.71 "Hg10 mi
10:52 AM9 °FSunny.6 mph61%30.72 "Hg10 mi
9:52 AM7 °FSunny.9 mph66%30.71 "Hg10 mi
8:52 AM7 °FPassing clouds.5 mph66%30.68 "Hg10 mi
7:52 AM5 °FSunny.9 mph69%30.65 "Hg10 mi
6:52 AM7 °FClear.9 mph70%30.60 "Hg10 mi
5:52 AM13 °FOvercast.14 mph74%30.57 "Hg10 mi
5:02 AM17 °FPartly cloudy.6 mph70%30.44 "Hg10 mi
4:52 AM17 °FPartly cloudy.10 mph70%30.52 "Hg10 mi
3:52 AM19 °FOvercast.8 mph71%30.49 "Hg10 mi
2:52 AM20 °FLight snow. Overcast.5 mph78%30.45 "Hg7 mi
1:52 AM20 °FOvercast.3 mph78%30.43 "Hg10 mi
12:52 AM20 °FMostly cloudy.6 mph78%30.42 "Hg10 mi
11:52 PM
Thu, Feb 11
20 °FMostly cloudy.6 mph71%30.40 "Hg10 mi
10:52 PM19 °FPassing clouds.3 mph74%30.39 "Hg10 mi
9:52 PM21 °FPassing clouds.7 mph71%30.37 "Hg10 mi
8:52 PM22 °FOvercast.9 mph75%30.37 "Hg10 mi
7:52 PM23 °FOvercast.10 mph72%30.37 "Hg10 mi
6:52 PM24 °FMostly cloudy.8 mph68%30.34 "Hg10 mi
5:52 PM24 °FMostly cloudy.6 mph68%30.30 "Hg10 mi
4:52 PM26 °FLight snow. More clouds than sun.8 mph71%30.27 "Hg8 mi
3:01 PM27 °FLight snow. More clouds than sun.6 mph69%30.14 "Hg3 mi
Weather by CustomWeather, © 2016

See weather overviewHow to use our weather pages